Franklin, PA

8:33 PM EDT on August 18, 2019 (GMT -0400)
Venango Regional

Weather History for KFKL - May, 2019

Change the Weather History Date:

Saturday, May 18, 2019

  Actual Average Record
Temperature  
Mean Temperature 60 °F -  
Max Temperature 75 °F 71 °F 92 °F (1962)
Min Temperature 48 °F 44 °F 30 °F (1935)
Degree Days  
Heating Degree Days 4    
Growing Degree Days 10 (Base 50)    
Moisture  
Dew Point 55 °F    
Average Humidity 79    
Maximum Humidity 90    
Minimum Humidity 68    
Precipitation  
Precipitation 0.00 in - - ()
Sea Level Pressure  
Sea Level Pressure 29.99 in    
Wind  
Wind Speed 4 mph (SE)    
Max Wind Speed 10 mph    
Max Gust Speed -    
Visibility 10 miles    
Events Rain    
Averages and records for this station are not official NWS values.
T = Trace of Precipitation, MM = Missing Value Source: NWS Daily Summary

Daily Weather History Graph

Daily Weather History Graph

Search for Another Location

Airport or City:

Astronomy

May. 18, 2019 Rise Set
Actual Time 5:58 AM EDT 8:34 PM EDT
Civil Twilight 5:26 AM EDT 9:06 PM EDT
Nautical Twilight 4:46 AM EDT 9:46 PM EDT
Astronomical Twilight 4:01 AM EDT 10:31 PM EDT
Moon 8:27 PM EDT (5/18) 6:04 AM EDT (5/18)
Length of Visible Light 15h 39m
Length of Day
14h 36m
Full, 100% of the Moon is Illuminated
May 18
Full
May 18
Full
May 26
Last Quarter
Jun 3
New
Jun 10
First Quarter

Hourly Weather History & Observations

Time (EDT) Temp. Dew Point Humidity Pressure Visibility Wind Dir Wind Speed Gust Speed Precip Events Conditions
12:56 AM 53.1 °F 48.9 °F 86% 29.98 in 10.0 mi Calm Calm - 0.00 in   Overcast
1:56 AM 52.0 °F 48.0 °F 86% 29.97 in 9.0 mi Calm Calm - N/A   Scattered Clouds
2:56 AM 52.0 °F 46.9 °F 83% 29.97 in 10.0 mi WNW 3.5 mph - N/A   Overcast
3:56 AM 51.1 °F 46.0 °F 83% 29.98 in 10.0 mi NW 3.5 mph - N/A   Overcast
4:56 AM 48.9 °F 45.0 °F 86% 29.99 in 10.0 mi NNE 4.6 mph - N/A   Clear
5:56 AM 48.9 °F 45.0 °F 86% 30.00 in 10.0 mi North 3.5 mph - N/A   Clear
6:56 AM 48.9 °F 46.0 °F 90% 30.01 in 10.0 mi Calm Calm - N/A   Scattered Clouds
7:56 AM 53.1 °F 46.0 °F 77% 30.02 in 10.0 mi East 5.8 mph - N/A   Mostly Cloudy
8:56 AM 53.1 °F 46.9 °F 80% 30.04 in 10.0 mi SE 4.6 mph - N/A   Overcast
9:56 AM 54.0 °F 48.9 °F 83% 30.05 in 10.0 mi ESE 3.5 mph - 0.00 in Rain Light Rain
10:22 AM 53.6 °F 48.2 °F 82% 30.06 in 9.0 mi NE 3.5 mph - 0.00 in Rain Light Rain
11:56 AM 55.0 °F 52.0 °F 89% 30.05 in 10.0 mi ESE 5.8 mph - 0.00 in   Overcast
12:56 PM 62.1 °F 55.9 °F 80% 30.02 in 10.0 mi SE 6.9 mph - N/A   Overcast
1:56 PM 66.9 °F 57.9 °F 73% 30.00 in 10.0 mi South 4.6 mph - N/A   Overcast
2:16 PM 69.8 °F 60.8 °F 73% 30.00 in 10.0 mi SSW 6.9 mph - N/A   Mostly Cloudy
2:46 PM 69.8 °F 59.0 °F 68% 30.00 in 10.0 mi Variable 6.9 mph - N/A   Scattered Clouds
2:56 PM 70.0 °F 60.1 °F 71% 29.99 in 10.0 mi South 9.2 mph - N/A   Mostly Cloudy
3:56 PM 71.1 °F 62.1 °F 73% 29.97 in 10.0 mi SE 6.9 mph - N/A   Mostly Cloudy
4:47 PM 71.6 °F 62.6 °F 73% 29.96 in 10.0 mi SSE 5.8 mph - N/A   Mostly Cloudy
4:56 PM 73.0 °F 63.0 °F 71% 29.96 in 10.0 mi South 5.8 mph - N/A   Overcast
5:56 PM 73.9 °F 64.0 °F 71% 29.95 in 10.0 mi ESE 5.8 mph - N/A   Partly Cloudy
6:56 PM 73.9 °F 64.9 °F 73% 29.94 in 10.0 mi ESE 5.8 mph - N/A   Partly Cloudy
7:56 PM 71.1 °F 64.9 °F 81% 29.94 in 10.0 mi SE 5.8 mph - N/A   Clear
8:56 PM 69.1 °F 64.0 °F 84% 29.95 in 10.0 mi SE 5.8 mph - N/A   Clear
9:56 PM 69.1 °F 64.0 °F 84% 29.95 in 10.0 mi SE 8.1 mph - N/A   Mostly Cloudy
10:56 PM 68.0 °F 62.1 °F 81% 29.95 in 10.0 mi South 6.9 mph - N/A   Partly Cloudy
11:56 PM 68.0 °F 60.1 °F 76% 29.94 in 10.0 mi South 10.4 mph - N/A   Partly Cloudy